B3077 LPFL-LPMA

Flight info

Callsign B3077
Flight time 2h 5m
Altitude 27000
Route INBUL H131 VFL/M080F390 DCT ZUPAZ DCT ETROX DCT 3520N DCT IRKID/N0455F390 UQ147 DEMZO DCT NIDUL
Aircraft CL60/M-SADE3FGHIJ3J4J7P2RWXY/HB1D1

Departure

Time 2026-04-15 12:15
Airport Flores Airport (LPFL)

Arrival

Time 2026-04-15 14:21
Airport Cristiano Ronaldo International Airport (LPMA)
Time Latitude Longitude Altitude Speed Heading
2026-04-15 11:58 39.45852 -31.13102 111 ft 0 kts 190°
2026-04-15 12:12 39.45841 -31.13104 111 ft 6 kts 190°
2026-04-15 12:12 39.45824 -31.13119 112 ft 5 kts 246°
2026-04-15 12:12 39.45814 -31.13164 113 ft 5 kts 256°
2026-04-15 12:12 39.45852 -31.13224 114 ft 12 kts 353°
2026-04-15 12:13 39.45947 -31.13253 113 ft 15 kts 343°
2026-04-15 12:13 39.46037 -31.13275 111 ft 10 kts 348°
2026-04-15 12:13 39.46105 -31.13310 110 ft 8 kts 311°
2026-04-15 12:13 39.46141 -31.13321 110 ft 4 kts 82°
2026-04-15 12:14 39.46127 -31.13300 109 ft 0 kts 168°
2026-04-15 12:14 39.46111 -31.13296 110 ft 17 kts 169°
2026-04-15 12:15 39.45647 -31.13168 117 ft 116 kts 167°
2026-04-15 12:15 39.44653 -31.12843 400 ft 167 kts 170°
2026-04-15 12:15 39.43539 -31.12400 1497 ft 173 kts 162°
2026-04-15 12:15 39.42696 -31.11332 2618 ft 189 kts 116°
2026-04-15 12:16 39.42446 -31.09631 3561 ft 203 kts 96°
2026-04-15 12:16 39.42372 -31.07858 4658 ft 201 kts 95°
2026-04-15 12:16 39.42324 -31.05966 5354 ft 230 kts 93°
2026-04-15 12:16 39.42271 -31.03795 6083 ft 258 kts 93°
2026-04-15 12:17 39.42208 -31.01391 6964 ft 279 kts 93°
2026-04-15 12:17 39.42138 -30.98854 8069 ft 291 kts 94°
2026-04-15 12:17 39.42061 -30.96261 9287 ft 297 kts 96°
2026-04-15 12:17 39.41630 -30.93676 10471 ft 297 kts 118°
2026-04-15 12:18 39.40481 -30.91534 11546 ft 297 kts 141°
2026-04-15 12:18 39.38835 -30.89761 12051 ft 324 kts 147°
2026-04-15 12:18 39.37014 -30.87927 12840 ft 341 kts 147°
2026-04-15 12:18 39.35133 -30.86016 13810 ft 349 kts 146°
2026-04-15 12:19 39.33217 -30.84068 14809 ft 355 kts 146°
2026-04-15 12:19 39.31292 -30.82109 15785 ft 359 kts 147°
2026-04-15 12:19 39.29313 -30.80097 16729 ft 364 kts 147°
2026-04-15 12:19 39.27327 -30.78078 17639 ft 368 kts 147°
2026-04-15 12:20 39.25344 -30.76063 18500 ft 372 kts 147°
2026-04-15 12:20 39.23298 -30.73985 19324 ft 376 kts 147°
2026-04-15 12:20 39.21254 -30.71909 20132 ft 380 kts 147°
2026-04-15 12:20 39.19165 -30.69791 20891 ft 384 kts 147°
2026-04-15 12:21 39.17066 -30.67663 21630 ft 388 kts 147°
2026-04-15 12:21 39.14938 -30.65506 22357 ft 392 kts 147°
2026-04-15 12:21 39.12794 -30.63335 23047 ft 396 kts 147°
2026-04-15 12:21 39.10630 -30.61146 23737 ft 400 kts 147°
2026-04-15 12:22 39.08439 -30.58930 24419 ft 404 kts 147°
2026-04-15 12:22 39.06239 -30.56707 25091 ft 407 kts 147°
2026-04-15 12:22 39.04010 -30.54455 25752 ft 410 kts 147°
2026-04-15 12:22 39.01770 -30.52197 26358 ft 414 kts 147°
2026-04-15 12:23 38.99500 -30.49908 26930 ft 418 kts 147°
2026-04-15 12:23 38.97202 -30.47594 27466 ft 423 kts 147°
2026-04-15 12:23 38.94884 -30.45260 28014 ft 426 kts 147°
2026-04-15 12:23 38.92550 -30.42913 28552 ft 428 kts 147°
2026-04-15 12:24 38.90202 -30.40553 29036 ft 432 kts 147°
2026-04-15 12:24 38.87818 -30.38160 29520 ft 435 kts 147°
2026-04-15 12:24 38.85464 -30.35798 30025 ft 436 kts 147°
2026-04-15 12:24 38.83063 -30.33391 30465 ft 439 kts 147°
2026-04-15 12:25 38.80616 -30.30940 30862 ft 442 kts 147°
2026-04-15 12:25 38.78220 -30.28543 31228 ft 446 kts 147°
2026-04-15 12:25 38.75743 -30.26068 31578 ft 449 kts 147°
2026-04-15 12:25 38.73255 -30.23583 31934 ft 452 kts 147°
2026-04-15 12:26 38.70735 -30.21068 32293 ft 455 kts 147°
2026-04-15 12:26 38.68231 -30.18571 32617 ft 457 kts 146°
2026-04-15 12:26 38.65707 -30.16057 32902 ft 460 kts 147°
2026-04-15 12:26 38.63137 -30.13500 33197 ft 461 kts 146°
2026-04-15 12:27 38.60616 -30.10933 33477 ft 465 kts 143°
2026-04-15 12:27 38.58213 -30.08019 33730 ft 470 kts 137°
2026-04-15 12:27 38.56092 -30.04835 33965 ft 475 kts 131°
2026-04-15 12:27 38.54224 -30.01317 34237 ft 479 kts 124°
2026-04-15 12:28 38.52658 -29.97516 34582 ft 482 kts 117°
2026-04-15 12:28 38.51430 -29.93480 34972 ft 483 kts 110°
2026-04-15 12:28 38.50570 -29.89310 35365 ft 484 kts 103°
2026-04-15 12:28 38.50084 -29.85066 35745 ft 484 kts 96°
2026-04-15 12:29 38.49966 -29.80815 36113 ft 484 kts 90°
2026-04-15 12:29 38.50053 -29.76552 36441 ft 483 kts 89°
2026-04-15 12:29 38.50147 -29.72288 36784 ft 482 kts 89°
2026-04-15 12:29 38.50238 -29.68032 37111 ft 480 kts 89°
2026-04-15 12:30 38.50326 -29.63771 37247 ft 482 kts 89°
2026-04-15 12:30 38.50500 -29.55192 37236 ft 484 kts 89°
2026-04-15 12:31 38.50666 -29.46678 37243 ft 482 kts 89°
2026-04-15 12:31 38.50825 -29.38176 37244 ft 480 kts 89°
2026-04-15 12:32 38.50977 -29.29680 37240 ft 480 kts 90°
2026-04-15 12:32 38.51123 -29.21197 37242 ft 480 kts 90°
2026-04-15 12:33 38.51263 -29.12670 37245 ft 480 kts 90°
2026-04-15 12:33 38.51396 -29.04190 37256 ft 479 kts 90°
2026-04-15 12:34 38.51523 -28.95680 37253 ft 478 kts 90°
2026-04-15 12:34 38.51644 -28.87170 37262 ft 478 kts 90°
2026-04-15 12:35 38.51759 -28.78640 37256 ft 478 kts 90°
2026-04-15 12:35 38.51834 -28.70176 37255 ft 477 kts 93°
2026-04-15 12:36 38.50858 -28.61787 37254 ft 473 kts 107°
2026-04-15 12:36 38.48413 -28.54081 37257 ft 469 kts 120°
2026-04-15 12:37 38.45278 -28.46748 37256 ft 468 kts 121°
2026-04-15 12:37 38.42141 -28.39428 37262 ft 468 kts 121°
2026-04-15 12:38 38.39022 -28.32171 37257 ft 467 kts 121°
2026-04-15 12:38 38.35920 -28.24970 37264 ft 466 kts 121°
2026-04-15 12:39 38.32796 -28.17736 37261 ft 466 kts 121°
2026-04-15 12:39 38.29678 -28.10531 37255 ft 466 kts 121°
2026-04-15 12:40 38.26514 -28.03239 37269 ft 466 kts 121°
2026-04-15 12:40 38.23401 -27.96080 37275 ft 465 kts 121°
2026-04-15 12:41 38.20278 -27.88913 37272 ft 465 kts 121°
2026-04-15 12:41 38.17136 -27.81721 37269 ft 464 kts 121°
2026-04-15 12:42 38.14007 -27.74575 37270 ft 464 kts 121°
2026-04-15 12:42 38.10876 -27.67438 37281 ft 463 kts 121°
2026-04-15 12:43 38.07731 -27.60286 37275 ft 463 kts 121°
2026-04-15 12:43 38.04597 -27.53176 37268 ft 462 kts 121°
2026-04-15 12:44 38.01441 -27.46033 37263 ft 462 kts 121°
2026-04-15 12:44 37.98290 -27.38915 37261 ft 462 kts 121°
2026-04-15 12:45 37.95146 -27.31830 37257 ft 462 kts 122°
2026-04-15 12:45 37.91975 -27.24699 37255 ft 462 kts 122°
2026-04-15 12:46 37.88816 -27.17611 37259 ft 462 kts 122°
2026-04-15 12:46 37.85632 -27.10483 37258 ft 462 kts 122°
2026-04-15 12:47 37.82476 -27.03433 37260 ft 462 kts 122°
2026-04-15 12:47 37.79442 -26.96670 37264 ft 463 kts 122°
2026-04-15 12:48 37.76223 -26.89512 37262 ft 470 kts 122°
2026-04-15 12:48 37.72980 -26.82316 37266 ft 475 kts 122°
2026-04-15 12:49 37.69711 -26.75077 37261 ft 477 kts 122°
2026-04-15 12:49 37.66430 -26.67826 37269 ft 476 kts 122°
2026-04-15 12:50 37.63146 -26.60585 37270 ft 476 kts 122°
2026-04-15 12:50 37.59838 -26.53308 37276 ft 476 kts 122°
2026-04-15 12:51 37.56539 -26.46067 37272 ft 476 kts 123°
2026-04-15 12:51 37.53248 -26.38861 37270 ft 477 kts 122°
2026-04-15 12:52 37.49942 -26.31636 37280 ft 478 kts 123°
2026-04-15 12:52 37.46625 -26.24406 37277 ft 478 kts 123°
2026-04-15 12:53 37.43294 -26.17159 37281 ft 479 kts 123°
2026-04-15 12:53 37.39979 -26.09962 37278 ft 479 kts 123°
2026-04-15 12:54 37.36591 -26.02625 37289 ft 479 kts 124°
2026-04-15 12:54 37.33260 -25.95427 37288 ft 480 kts 124°
2026-04-15 12:55 37.29870 -25.88119 37296 ft 481 kts 124°
2026-04-15 12:55 37.26511 -25.80891 37292 ft 481 kts 124°
2026-04-15 12:56 37.23143 -25.73663 37296 ft 482 kts 124°
2026-04-15 12:56 37.19746 -25.66386 37293 ft 483 kts 124°
2026-04-15 12:57 37.16349 -25.59127 37297 ft 483 kts 124°
2026-04-15 12:57 37.12950 -25.51879 37298 ft 484 kts 124°
2026-04-15 12:58 37.09532 -25.44606 37300 ft 485 kts 124°
2026-04-15 12:58 37.06114 -25.37349 37302 ft 485 kts 125°
2026-04-15 12:59 37.00952 -25.26421 37297 ft 486 kts 125°
2026-04-15 12:59 36.97512 -25.19158 37293 ft 486 kts 126°
2026-04-15 13:00 36.94059 -25.11950 37291 ft 486 kts 126°
2026-04-15 13:00 36.90555 -25.04706 37293 ft 487 kts 126°
2026-04-15 13:01 36.87038 -24.97448 37289 ft 487 kts 126°
2026-04-15 13:01 36.83499 -24.90162 37288 ft 487 kts 126°
2026-04-15 13:02 36.79976 -24.82923 37283 ft 486 kts 126°
2026-04-15 13:02 36.76461 -24.75718 37284 ft 486 kts 126°
2026-04-15 13:03 36.72940 -24.68513 37282 ft 487 kts 126°
2026-04-15 13:03 36.69421 -24.61329 37284 ft 487 kts 126°
2026-04-15 13:04 36.65886 -24.54127 37284 ft 487 kts 126°
2026-04-15 13:04 36.62336 -24.46912 37283 ft 487 kts 126°
2026-04-15 13:05 36.58801 -24.39741 37281 ft 487 kts 126°
2026-04-15 13:05 36.55262 -24.32578 37278 ft 487 kts 127°
2026-04-15 13:06 36.51737 -24.25458 37280 ft 486 kts 127°
2026-04-15 13:06 36.48198 -24.18323 37280 ft 486 kts 127°
2026-04-15 13:07 36.44629 -24.11146 37286 ft 486 kts 127°
2026-04-15 13:07 36.41090 -24.04020 37291 ft 487 kts 125°
2026-04-15 13:08 36.38242 -23.96291 37289 ft 493 kts 116°
2026-04-15 13:08 36.35659 -23.88356 37292 ft 493 kts 116°
2026-04-15 13:09 36.33085 -23.80485 37300 ft 494 kts 116°
2026-04-15 13:09 36.30512 -23.72640 37298 ft 493 kts 116°
2026-04-15 13:10 36.27930 -23.64796 37298 ft 493 kts 116°
2026-04-15 13:10 36.25343 -23.56959 37298 ft 492 kts 116°
2026-04-15 13:11 36.22746 -23.49119 37297 ft 492 kts 116°
2026-04-15 13:11 36.20149 -23.41298 37300 ft 492 kts 116°
2026-04-15 13:12 36.17551 -23.33497 37301 ft 492 kts 117°
2026-04-15 13:12 36.14936 -23.25666 37302 ft 492 kts 117°
2026-04-15 13:13 36.12339 -23.17908 37297 ft 491 kts 117°
2026-04-15 13:13 36.09701 -23.10053 37301 ft 491 kts 116°
2026-04-15 13:14 36.07064 -23.02219 37299 ft 491 kts 116°
2026-04-15 13:14 36.04455 -22.94487 37299 ft 491 kts 116°
2026-04-15 13:15 36.01817 -22.86693 37300 ft 491 kts 116°
2026-04-15 13:15 35.99183 -22.78929 37300 ft 491 kts 116°
2026-04-15 13:16 35.96534 -22.71143 37302 ft 491 kts 116°
2026-04-15 13:16 35.93899 -22.63416 37298 ft 491 kts 116°
2026-04-15 13:17 35.91228 -22.55603 37297 ft 491 kts 116°
2026-04-15 13:17 35.88561 -22.47825 37299 ft 491 kts 116°
2026-04-15 13:18 35.85905 -22.40094 37300 ft 491 kts 116°
2026-04-15 13:18 35.83218 -22.32295 37300 ft 490 kts 117°
2026-04-15 13:19 35.80550 -22.24573 37300 ft 490 kts 117°
2026-04-15 13:19 35.77875 -22.16847 37300 ft 489 kts 117°
2026-04-15 13:20 35.75195 -22.09127 37298 ft 489 kts 117°
2026-04-15 13:20 35.72524 -22.01453 37297 ft 489 kts 117°
2026-04-15 13:21 35.69829 -21.93729 37302 ft 489 kts 117°
2026-04-15 13:21 35.67129 -21.86013 37296 ft 488 kts 117°
2026-04-15 13:22 35.64440 -21.78350 37298 ft 488 kts 117°
2026-04-15 13:22 35.61753 -21.70706 37290 ft 488 kts 117°
2026-04-15 13:23 35.59052 -21.63039 37289 ft 488 kts 117°
2026-04-15 13:23 35.56360 -21.55422 37284 ft 487 kts 116°
2026-04-15 13:24 35.53645 -21.47754 37287 ft 487 kts 117°
2026-04-15 13:24 35.50947 -21.40155 37280 ft 487 kts 116°
2026-04-15 13:25 35.48216 -21.32480 37293 ft 486 kts 117°
2026-04-15 13:25 35.45499 -21.24867 37286 ft 486 kts 117°
2026-04-15 13:26 35.42787 -21.17283 37275 ft 486 kts 117°
2026-04-15 13:26 35.40076 -21.09722 37277 ft 485 kts 117°
2026-04-15 13:27 35.37357 -21.02155 37277 ft 486 kts 117°
2026-04-15 13:27 35.34629 -20.94583 37287 ft 485 kts 117°
2026-04-15 13:28 35.31900 -20.87025 37293 ft 485 kts 117°
2026-04-15 13:28 35.29182 -20.79515 37298 ft 485 kts 117°
2026-04-15 13:29 35.26453 -20.71993 37294 ft 485 kts 116°
2026-04-15 13:29 35.23701 -20.64428 37297 ft 485 kts 116°
2026-04-15 13:30 35.20948 -20.56879 37303 ft 484 kts 116°
2026-04-15 13:30 35.18201 -20.49360 37300 ft 484 kts 116°
2026-04-15 13:31 35.15454 -20.41861 37297 ft 484 kts 116°
2026-04-15 13:31 35.12685 -20.34318 37301 ft 483 kts 117°
2026-04-15 13:32 35.09950 -20.26887 37298 ft 482 kts 116°
2026-04-15 13:32 35.07187 -20.19396 37300 ft 482 kts 117°
2026-04-15 13:33 35.04425 -20.11927 37298 ft 482 kts 116°
2026-04-15 13:33 35.01655 -20.04454 37300 ft 482 kts 116°
2026-04-15 13:34 34.98555 -19.97259 37300 ft 479 kts 126°
2026-04-15 13:34 34.94878 -19.90508 37301 ft 479 kts 126°
2026-04-15 13:35 34.91199 -19.83754 37299 ft 477 kts 126°
2026-04-15 13:35 34.87504 -19.76981 37299 ft 477 kts 126°
2026-04-15 13:36 34.83807 -19.70216 37299 ft 476 kts 126°
2026-04-15 13:36 34.80145 -19.63528 37299 ft 476 kts 126°
2026-04-15 13:37 34.76457 -19.56801 37299 ft 475 kts 125°
2026-04-15 13:37 34.72765 -19.50080 37301 ft 475 kts 125°
2026-04-15 13:38 34.69114 -19.43446 37298 ft 475 kts 125°
2026-04-15 13:38 34.65416 -19.36738 37299 ft 474 kts 125°
2026-04-15 13:39 34.61744 -19.30087 37299 ft 474 kts 126°
2026-04-15 13:39 34.58060 -19.23431 37297 ft 473 kts 126°
2026-04-15 13:40 34.54364 -19.16763 37297 ft 472 kts 125°
2026-04-15 13:40 34.50691 -19.10148 37297 ft 472 kts 125°
2026-04-15 13:41 34.47034 -19.03575 37298 ft 471 kts 125°
2026-04-15 13:41 34.43340 -18.96948 37300 ft 471 kts 125°
2026-04-15 13:42 34.39677 -18.90388 37305 ft 471 kts 125°
2026-04-15 13:42 34.36005 -18.83825 37304 ft 471 kts 125°
2026-04-15 13:43 34.32338 -18.77281 37300 ft 470 kts 125°
2026-04-15 13:43 34.28637 -18.70690 37299 ft 469 kts 125°
2026-04-15 13:44 34.24959 -18.64149 37297 ft 469 kts 125°
2026-04-15 13:44 34.21252 -18.57572 37295 ft 469 kts 125°
2026-04-15 13:45 34.17574 -18.51056 37292 ft 469 kts 125°
2026-04-15 13:47 34.02809 -18.25018 37280 ft 468 kts 126°
2026-04-15 13:47 33.99103 -18.18512 37279 ft 467 kts 126°
2026-04-15 13:48 33.95437 -18.12087 37278 ft 467 kts 126°
2026-04-15 13:48 33.91534 -18.05807 37273 ft 465 kts 134°
2026-04-15 13:49 33.86932 -18.00344 37281 ft 465 kts 136°
2026-04-15 13:49 33.82315 -17.94911 37278 ft 464 kts 136°
2026-04-15 13:50 33.77678 -17.89461 37276 ft 463 kts 136°
2026-04-15 13:50 33.73092 -17.84080 37279 ft 462 kts 136°
2026-04-15 13:51 33.68488 -17.78684 37277 ft 461 kts 136°
2026-04-15 13:51 33.63900 -17.73315 37273 ft 461 kts 136°
2026-04-15 13:52 33.59332 -17.67977 37277 ft 461 kts 136°
2026-04-15 13:52 33.54733 -17.62611 37282 ft 461 kts 137°
2026-04-15 13:53 33.50115 -17.57232 37281 ft 460 kts 136°
2026-04-15 13:53 33.45540 -17.51910 37280 ft 460 kts 136°
2026-04-15 13:54 33.40946 -17.46575 37284 ft 459 kts 136°
2026-04-15 13:54 33.36337 -17.41231 37278 ft 458 kts 136°
2026-04-15 13:55 33.31786 -17.35968 37274 ft 457 kts 137°
2026-04-15 13:55 33.26692 -17.31387 37267 ft 456 kts 151°
2026-04-15 13:56 33.20915 -17.28388 37263 ft 454 kts 164°
2026-04-15 13:56 33.14736 -17.27074 37262 ft 453 kts 177°
2026-04-15 13:57 33.08427 -17.27395 37261 ft 453 kts 185°
2026-04-15 13:57 33.02115 -17.28104 37257 ft 453 kts 185°
2026-04-15 13:58 32.95830 -17.28805 37255 ft 454 kts 185°
2026-04-15 13:58 32.89537 -17.29504 37254 ft 454 kts 185°
2026-04-15 13:59 32.83231 -17.30203 37260 ft 455 kts 185°
2026-04-15 13:59 32.76843 -17.30909 36946 ft 461 kts 185°
2026-04-15 14:00 32.73642 -17.31263 36368 ft 457 kts 185°
2026-04-15 14:00 32.70469 -17.31613 35800 ft 449 kts 185°
2026-04-15 14:00 32.67382 -17.31954 35242 ft 442 kts 185°
2026-04-15 14:00 32.64317 -17.32292 34676 ft 436 kts 184°
2026-04-15 14:01 32.58360 -17.32948 33545 ft 426 kts 184°
2026-04-15 14:01 32.55417 -17.33268 32975 ft 421 kts 183°
2026-04-15 14:01 32.52517 -17.33131 32098 ft 423 kts 167°
2026-04-15 14:02 32.49834 -17.31819 30852 ft 429 kts 145°
2026-04-15 14:02 32.47718 -17.29311 29809 ft 431 kts 123°
2026-04-15 14:02 32.46431 -17.26130 27948 ft 454 kts 107°
2026-04-15 14:02 32.46169 -17.22395 25987 ft 469 kts 83°
2026-04-15 14:03 32.47264 -17.18886 25804 ft 446 kts 59°
2026-04-15 14:03 32.49227 -17.16180 25377 ft 427 kts 40°
2026-04-15 14:03 32.51724 -17.14529 24988 ft 406 kts 25°
2026-04-15 14:03 32.54273 -17.13217 24515 ft 390 kts 25°
2026-04-15 14:04 32.56694 -17.11906 24046 ft 376 kts 26°
2026-04-15 14:04 32.59036 -17.10570 23553 ft 365 kts 27°
2026-04-15 14:04 32.61240 -17.09250 23088 ft 354 kts 28°
2026-04-15 14:04 32.63400 -17.07894 22665 ft 349 kts 30°
2026-04-15 14:05 32.65527 -17.06498 22157 ft 350 kts 31°
2026-04-15 14:05 32.67619 -17.05061 21717 ft 347 kts 32°
2026-04-15 14:05 32.69695 -17.03571 21240 ft 344 kts 33°
2026-04-15 14:05 32.71697 -17.02071 20803 ft 340 kts 34°
2026-04-15 14:06 32.73677 -17.00523 20352 ft 338 kts 36°
2026-04-15 14:06 32.75600 -16.98954 19914 ft 335 kts 37°
2026-04-15 14:06 32.77490 -16.97344 19461 ft 333 kts 38°
2026-04-15 14:06 32.79308 -16.95691 19015 ft 330 kts 39°
2026-04-15 14:07 32.81112 -16.94022 18562 ft 327 kts 39°
2026-04-15 14:07 32.82879 -16.92388 18150 ft 323 kts 39°
2026-04-15 14:07 32.84665 -16.90734 17744 ft 323 kts 39°
2026-04-15 14:07 32.86289 -16.88944 17286 ft 319 kts 54°
2026-04-15 14:08 32.87405 -16.86725 16865 ft 314 kts 63°
2026-04-15 14:08 32.88436 -16.84462 16460 ft 311 kts 63°
2026-04-15 14:08 32.89467 -16.82216 16035 ft 310 kts 63°
2026-04-15 14:08 32.90496 -16.79970 15643 ft 309 kts 63°
2026-04-15 14:09 32.91524 -16.77726 15234 ft 308 kts 63°
2026-04-15 14:09 32.92543 -16.75498 14827 ft 305 kts 63°
2026-04-15 14:09 32.93549 -16.73298 14419 ft 304 kts 63°
2026-04-15 14:09 32.94549 -16.71109 14014 ft 302 kts 63°
2026-04-15 14:10 32.95549 -16.68918 13617 ft 299 kts 63°
2026-04-15 14:10 32.96541 -16.66742 13231 ft 298 kts 62°
2026-04-15 14:10 32.97516 -16.64601 12835 ft 296 kts 63°
2026-04-15 14:10 32.98264 -16.62355 12426 ft 292 kts 78°
2026-04-15 14:11 32.98320 -16.59956 12002 ft 292 kts 99°
2026-04-15 14:11 32.97646 -16.57709 11545 ft 291 kts 119°
2026-04-15 14:11 32.96355 -16.55862 11073 ft 293 kts 137°
2026-04-15 14:11 32.94605 -16.54592 10622 ft 295 kts 155°
2026-04-15 14:12 32.92601 -16.54067 10070 ft 296 kts 176°
2026-04-15 14:12 32.90592 -16.54400 9569 ft 293 kts 195°
2026-04-15 14:12 32.88812 -16.55531 8960 ft 294 kts 217°
2026-04-15 14:12 32.87332 -16.57105 8706 ft 280 kts 220°
2026-04-15 14:13 32.85901 -16.58645 8282 ft 275 kts 220°
2026-04-15 14:13 32.84485 -16.60160 7974 ft 272 kts 220°
2026-04-15 14:13 32.83078 -16.61662 7567 ft 271 kts 219°
2026-04-15 14:13 32.81581 -16.62971 7242 ft 267 kts 207°
2026-04-15 14:14 32.79923 -16.63862 6892 ft 260 kts 195°
2026-04-15 14:14 32.78214 -16.64554 6543 ft 255 kts 195°
2026-04-15 14:14 32.76547 -16.65233 6257 ft 252 kts 195°
2026-04-15 14:14 32.74903 -16.65902 5868 ft 253 kts 195°
2026-04-15 14:15 32.73248 -16.66576 5570 ft 249 kts 195°
2026-04-15 14:15 32.71610 -16.67242 5212 ft 248 kts 195°
2026-04-15 14:15 32.69971 -16.67907 4752 ft 252 kts 195°
2026-04-15 14:15 32.68302 -16.68583 4296 ft 252 kts 195°
2026-04-15 14:16 32.66665 -16.69249 3977 ft 245 kts 195°
2026-04-15 14:16 32.65072 -16.69896 3622 ft 239 kts 195°
2026-04-15 14:16 32.63540 -16.70604 3317 ft 234 kts 205°
2026-04-15 14:16 32.62248 -16.71733 3019 ft 230 kts 225°
2026-04-15 14:17 32.61365 -16.73245 2727 ft 217 kts 245°
2026-04-15 14:17 32.60936 -16.74895 2424 ft 202 kts 263°
2026-04-15 14:17 32.60911 -16.76437 2154 ft 175 kts 280°
2026-04-15 14:17 32.61171 -16.77728 2043 ft 152 kts 297°
2026-04-15 14:18 32.61660 -16.78806 1768 ft 143 kts 314°
2026-04-15 14:18 32.62324 -16.79588 1583 ft 131 kts 332°
2026-04-15 14:18 32.63113 -16.80100 1422 ft 126 kts 347°
2026-04-15 14:18 32.63942 -16.80333 1247 ft 119 kts
2026-04-15 14:19 32.64759 -16.80354 1109 ft 117 kts
2026-04-15 14:19 32.65584 -16.80318 981 ft 119 kts
2026-04-15 14:19 32.66390 -16.80232 843 ft 116 kts 14°
2026-04-15 14:19 32.67156 -16.79947 700 ft 111 kts 27°
2026-04-15 14:20 32.67846 -16.79538 461 ft 117 kts 33°
2026-04-15 14:20 32.68465 -16.78958 314 ft 112 kts 40°
2026-04-15 14:20 32.69022 -16.78341 174 ft 108 kts 45°
2026-04-15 14:20 32.69477 -16.77804 203 ft 73 kts 43°
2026-04-15 14:21 32.69696 -16.77555 214 ft 27 kts 44°
2026-04-15 14:21 32.69837 -16.77395 212 ft 28 kts 48°
2026-04-15 14:21 32.69950 -16.77242 202 ft 19 kts 61°
2026-04-15 14:21 32.69923 -16.77175 186 ft 6 kts 177°
2026-04-15 14:22 32.69850 -16.77179 177 ft 8 kts 192°
2026-04-15 14:22 32.69806 -16.77216 178 ft 10 kts 225°
2026-04-15 14:22 32.69727 -16.77314 182 ft 16 kts 227°
2026-04-15 14:22 32.69680 -16.77375 185 ft 4 kts 229°
2026-04-15 14:23 32.69664 -16.77360 180 ft 3 kts 113°
2026-04-15 14:23 32.69640 -16.77332 172 ft 5 kts 138°
2026-04-15 14:23 32.69615 -16.77306 164 ft 0 kts 139°
2026-04-15 14:23 32.69613 -16.77304 163 ft 0 kts 138°